Time,TemperatureF,DewpointF,PressureIn,WindDirection,WindDirectionDegrees,WindSpeedMPH,WindSpeedGustMPH,Humidity,HourlyPrecipIn,Conditions,Clouds,dailyrainin,SolarRadiationWatts/m^2,SoftwareType,DateUTC
2013-08-18 00:02:00,85.8,25.2,-100.00,SE,140,1.0,-999.0,11,-99.99,,,0.00,0.0,meteohub,2013-08-18 04:02:00,
2013-08-18 00:07:00,86.0,27.5,-100.00,South,169,2.0,-999.0,12,-99.99,,,0.00,0.0,meteohub,2013-08-18 04:07:00,
2013-08-18 00:12:00,85.8,27.3,-100.00,South,169,1.0,-999.0,12,-99.99,,,0.00,0.0,meteohub,2013-08-18 04:12:00,
2013-08-18 00:17:00,85.6,27.1,-100.00,South,186,0.0,-999.0,12,-99.99,,,0.00,0.0,meteohub,2013-08-18 04:17:00,
2013-08-18 00:22:00,85.6,25.2,-100.00,SE,139,1.0,-999.0,11,-99.99,,,0.00,0.0,meteohub,2013-08-18 04:22:00,
2013-08-18 00:27:00,85.8,25.2,-100.00,South,171,0.0,-999.0,11,-99.99,,,0.00,0.0,meteohub,2013-08-18 04:27:00,
2013-08-18 00:32:00,85.8,23.0,-100.00,SSE,165,0.0,-999.0,10,-99.99,,,0.00,0.0,meteohub,2013-08-18 04:32:00,
2013-08-18 00:37:00,85.6,22.8,-100.00,South,171,1.0,-999.0,10,-99.99,,,0.00,0.0,meteohub,2013-08-18 04:37:00,
2013-08-18 00:42:00,85.8,23.0,-100.00,South,175,0.0,-999.0,10,-99.99,,,0.00,0.0,meteohub,2013-08-18 04:42:00,
2013-08-18 00:47:00,85.8,25.2,-100.00,SSE,155,3.0,-999.0,11,-99.99,,,0.00,0.0,meteohub,2013-08-18 04:47:00,
2013-08-18 00:52:00,85.6,25.2,-100.00,SSE,158,5.0,-999.0,11,-99.99,,,0.00,0.0,meteohub,2013-08-18 04:52:00,
2013-08-18 00:57:00,85.6,25.2,-100.00,South,189,0.0,-999.0,11,-99.99,,,0.00,0.0,meteohub,2013-08-18 04:57:00,
2013-08-18 01:02:00,85.8,25.2,-100.00,South,188,0.0,-999.0,11,-99.99,,,0.00,0.0,meteohub,2013-08-18 05:02:00,
2013-08-18 01:07:00,85.6,27.1,-100.00,South,178,6.0,-999.0,12,-99.99,,,0.00,0.0,meteohub,2013-08-18 05:07:00,
2013-08-18 01:12:00,85.6,29.1,-100.00,SSW,200,3.0,-999.0,13,-99.99,,,0.00,0.0,meteohub,2013-08-18 05:12:00,
2013-08-18 01:17:00,85.6,32.7,-100.00,SSE,168,4.0,-999.0,15,-99.99,,,0.00,0.0,meteohub,2013-08-18 05:17:00,
2013-08-18 01:22:00,85.6,32.7,-100.00,SSE,167,3.0,-999.0,15,-99.99,,,0.00,0.0,meteohub,2013-08-18 05:22:00,
2013-08-18 01:27:00,85.5,30.9,-100.00,SSW,192,4.0,-999.0,14,-99.99,,,0.00,0.0,meteohub,2013-08-18 05:27:00,
2013-08-18 01:32:00,85.6,30.9,-100.00,SSE,151,5.0,-999.0,14,-99.99,,,0.00,0.0,meteohub,2013-08-18 05:32:00,
2013-08-18 01:37:00,85.6,30.9,-100.00,South,172,0.0,-999.0,14,-99.99,,,0.00,0.0,meteohub,2013-08-18 05:37:00,
2013-08-18 01:42:00,85.6,29.1,-100.00,ENE,74,3.0,-999.0,13,-99.99,,,0.00,0.0,meteohub,2013-08-18 05:42:00,
2013-08-18 01:47:00,85.5,28.9,-100.00,South,174,2.0,-999.0,13,-99.99,,,0.00,0.0,meteohub,2013-08-18 05:47:00,
2013-08-18 01:52:00,85.5,32.5,-100.00,South,182,6.0,-999.0,15,-99.99,,,0.00,0.0,meteohub,2013-08-18 05:52:00,
2013-08-18 01:57:00,85.5,32.5,-100.00,SSE,163,2.0,-999.0,15,-99.99,,,0.00,0.0,meteohub,2013-08-18 05:57:00,
2013-08-18 02:02:00,85.5,30.9,-100.00,South,190,5.0,-999.0,14,-99.99,,,0.00,0.0,meteohub,2013-08-18 06:02:00,
2013-08-18 02:07:00,85.5,30.9,-100.00,SSW,192,9.0,-999.0,14,-99.99,,,0.00,0.0,meteohub,2013-08-18 06:07:00,
2013-08-18 02:12:00,85.5,28.9,-100.00,South,186,3.0,-999.0,13,-99.99,,,0.00,0.0,meteohub,2013-08-18 06:12:00,
2013-08-18 02:17:00,85.6,27.1,-100.00,SSE,167,2.0,-999.0,12,-99.99,,,0.00,0.0,meteohub,2013-08-18 06:17:00,
2013-08-18 02:22:00,85.5,25.0,-100.00,SSW,206,7.0,-999.0,11,-99.99,,,0.00,0.0,meteohub,2013-08-18 06:22:00,
2013-08-18 02:27:00,85.6,25.2,-100.00,South,185,0.0,-999.0,11,-99.99,,,0.00,0.0,meteohub,2013-08-18 06:27:00,
2013-08-18 02:32:00,85.6,22.8,-100.00,SSW,200,0.0,-999.0,10,-99.99,,,0.00,0.0,meteohub,2013-08-18 06:32:00,
2013-08-18 02:37:00,85.5,20.1,-100.00,South,184,0.0,-999.0,9,-99.99,,,0.00,0.0,meteohub,2013-08-18 06:37:00,
2013-08-18 02:42:00,85.3,20.1,-100.00,SW,225,5.0,-999.0,9,-99.99,,,0.00,0.0,meteohub,2013-08-18 06:42:00,
2013-08-18 02:47:00,85.5,20.1,-100.00,South,173,5.0,-999.0,9,-99.99,,,0.00,0.0,meteohub,2013-08-18 06:47:00,
2013-08-18 02:52:00,85.3,22.6,-100.00,SSE,161,3.0,-999.0,10,-99.99,,,0.00,0.0,meteohub,2013-08-18 06:52:00,
2013-08-18 02:57:00,85.3,22.6,-100.00,SE,142,5.0,-999.0,10,-99.99,,,0.00,0.0,meteohub,2013-08-18 06:57:00,
2013-08-18 03:02:00,85.1,22.5,-100.00,SE,132,5.0,-999.0,10,-99.99,,,0.00,0.0,meteohub,2013-08-18 07:02:00,
2013-08-18 03:07:00,85.3,22.6,-100.00,SSE,153,3.0,-999.0,10,-99.99,,,0.00,0.0,meteohub,2013-08-18 07:07:00,
2013-08-18 03:12:00,85.3,22.6,-100.00,SSW,205,7.0,-999.0,10,-99.99,,,0.00,0.0,meteohub,2013-08-18 07:12:00,
2013-08-18 03:17:00,84.9,19.8,-100.00,ESE,117,5.0,-999.0,9,-99.99,,,0.00,0.0,meteohub,2013-08-18 07:17:00,
2013-08-18 03:22:00,84.7,19.6,-100.00,SSW,194,10.0,-999.0,9,-99.99,,,0.00,0.0,meteohub,2013-08-18 07:22:00,
2013-08-18 03:27:00,84.6,19.6,-100.00,South,175,5.0,-999.0,9,-99.99,,,0.00,0.0,meteohub,2013-08-18 07:27:00,
2013-08-18 03:32:00,84.6,19.6,-100.00,SSE,164,2.0,-999.0,9,-99.99,,,0.00,0.0,meteohub,2013-08-18 07:32:00,
2013-08-18 03:37:00,84.7,19.6,-100.00,South,181,3.0,-999.0,9,-99.99,,,0.00,0.0,meteohub,2013-08-18 07:37:00,
2013-08-18 03:42:00,84.6,21.9,-100.00,SE,144,0.0,-999.0,10,-99.99,,,0.00,0.0,meteohub,2013-08-18 07:42:00,
2013-08-18 03:47:00,84.4,26.2,-100.00,SSW,197,4.0,-999.0,12,-99.99,,,0.00,0.0,meteohub,2013-08-18 07:47:00,
2013-08-18 03:52:00,84.6,24.3,-100.00,SSW,196,4.0,-999.0,11,-99.99,,,0.00,0.0,meteohub,2013-08-18 07:52:00,
2013-08-18 03:57:00,84.6,24.3,-100.00,SSW,213,3.0,-999.0,11,-99.99,,,0.00,0.0,meteohub,2013-08-18 07:57:00,
2013-08-18 04:02:00,84.6,24.3,-100.00,SE,146,5.0,-999.0,11,-99.99,,,0.00,0.0,meteohub,2013-08-18 08:02:00,
2013-08-18 04:07:00,84.6,24.3,-100.00,West,259,4.0,-999.0,11,-99.99,,,0.00,0.0,meteohub,2013-08-18 08:07:00,
2013-08-18 04:12:00,84.7,22.1,-100.00,South,190,0.0,-999.0,10,-99.99,,,0.00,0.0,meteohub,2013-08-18 08:12:00,
2013-08-18 04:17:00,84.9,22.3,-100.00,South,178,4.0,-999.0,10,-99.99,,,0.00,0.0,meteohub,2013-08-18 08:17:00,
2013-08-18 04:22:00,84.9,19.8,-100.00,South,172,4.0,-999.0,9,-99.99,,,0.00,0.0,meteohub,2013-08-18 08:22:00,
2013-08-18 04:27:00,84.9,19.8,-100.00,South,173,0.0,-999.0,9,-99.99,,,0.00,0.0,meteohub,2013-08-18 08:27:00,
2013-08-18 04:32:00,84.9,19.8,-100.00,SSE,167,0.0,-999.0,9,-99.99,,,0.00,0.0,meteohub,2013-08-18 08:32:00,
2013-08-18 04:37:00,84.7,19.6,-100.00,SSE,157,2.0,-999.0,9,-99.99,,,0.00,0.0,meteohub,2013-08-18 08:37:00,
2013-08-18 04:42:00,84.7,19.6,-100.00,SSW,211,4.0,-999.0,9,-99.99,,,0.00,0.0,meteohub,2013-08-18 08:42:00,
2013-08-18 04:47:00,84.4,16.7,-100.00,SSE,161,0.0,-999.0,8,-99.99,,,0.00,0.0,meteohub,2013-08-18 08:47:00,
2013-08-18 04:52:00,83.8,19.0,-100.00,South,188,2.0,-999.0,9,-99.99,,,0.00,0.0,meteohub,2013-08-18 08:52:00,
2013-08-18 04:57:00,83.8,19.0,-100.00,SW,221,1.0,-999.0,9,-99.99,,,0.00,0.0,meteohub,2013-08-18 08:57:00,
2013-08-18 05:02:00,83.7,18.9,-100.00,SSW,211,0.0,-999.0,9,-99.99,,,0.00,0.0,meteohub,2013-08-18 09:02:00,
2013-08-18 05:07:00,83.7,18.9,-100.00,South,182,5.0,-999.0,9,-99.99,,,0.00,0.0,meteohub,2013-08-18 09:07:00,
2013-08-18 05:12:00,83.8,19.0,-100.00,SSW,204,0.0,-999.0,9,-99.99,,,0.00,0.0,meteohub,2013-08-18 09:12:00,
2013-08-18 05:17:00,84.0,19.0,-100.00,SSE,167,1.0,-999.0,9,-99.99,,,0.00,0.0,meteohub,2013-08-18 09:17:00,
2013-08-18 05:22:00,84.2,16.5,-100.00,SSE,165,3.0,-999.0,8,-99.99,,,0.00,0.0,meteohub,2013-08-18 09:22:00,
2013-08-18 05:27:00,84.4,16.7,-100.00,SSW,192,5.0,-999.0,8,-99.99,,,0.00,0.0,meteohub,2013-08-18 09:27:00,
2013-08-18 05:32:00,84.6,19.6,-100.00,South,186,4.0,-999.0,9,-99.99,,,0.00,0.0,meteohub,2013-08-18 09:32:00,
2013-08-18 05:37:00,84.7,22.1,-100.00,South,170,2.0,-999.0,10,-99.99,,,0.00,0.0,meteohub,2013-08-18 09:37:00,
2013-08-18 05:42:00,84.6,21.9,-100.00,SSE,168,2.0,-999.0,10,-99.99,,,0.00,0.0,meteohub,2013-08-18 09:42:00,
2013-08-18 05:47:00,84.9,22.3,-100.00,SE,125,3.0,-999.0,10,-99.99,,,0.00,0.0,meteohub,2013-08-18 09:47:00,
2013-08-18 05:52:00,85.1,22.5,-100.00,South,188,4.0,-999.0,10,-99.99,,,0.00,0.0,meteohub,2013-08-18 09:52:00,
2013-08-18 05:57:00,84.9,19.8,-100.00,SE,146,5.0,-999.0,9,-99.99,,,0.00,0.0,meteohub,2013-08-18 09:57:00,
2013-08-18 06:02:00,84.9,19.8,-100.00,SSW,193,3.0,-999.0,9,-99.99,,,0.00,0.0,meteohub,2013-08-18 10:02:00,
2013-08-18 06:07:00,84.9,19.8,-100.00,South,186,1.0,-999.0,9,-99.99,,,0.00,0.0,meteohub,2013-08-18 10:07:00,
2013-08-18 06:12:00,84.9,19.8,-100.00,South,184,0.0,-999.0,9,-99.99,,,0.00,0.0,meteohub,2013-08-18 10:12:00,
2013-08-18 06:17:00,84.7,19.6,-100.00,South,188,4.0,-999.0,9,-99.99,,,0.00,0.0,meteohub,2013-08-18 10:17:00,
2013-08-18 06:22:00,85.1,22.5,-100.00,South,182,5.0,-999.0,10,-99.99,,,0.00,0.0,meteohub,2013-08-18 10:22:00,
2013-08-18 06:27:00,84.9,22.3,-100.00,SSW,200,3.0,-999.0,10,-99.99,,,0.00,0.0,meteohub,2013-08-18 10:27:00,
2013-08-18 06:32:00,84.7,22.1,-100.00,South,180,5.0,-999.0,10,-99.99,,,0.00,0.0,meteohub,2013-08-18 10:32:00,
2013-08-18 06:37:00,84.7,24.4,-100.00,SSW,204,6.0,-999.0,11,-99.99,,,0.00,0.0,meteohub,2013-08-18 10:37:00,
2013-08-18 06:42:00,84.9,26.6,-100.00,South,180,5.0,-999.0,12,-99.99,,,0.00,0.0,meteohub,2013-08-18 10:42:00,
2013-08-18 06:47:00,84.9,24.6,-100.00,South,172,3.0,-999.0,11,-99.99,,,0.00,0.0,meteohub,2013-08-18 10:47:00,
2013-08-18 06:52:00,84.9,22.3,-100.00,South,187,4.0,-999.0,10,-99.99,,,0.00,0.0,meteohub,2013-08-18 10:52:00,
2013-08-18 06:57:00,84.9,22.3,-100.00,South,190,6.0,-999.0,10,-99.99,,,0.00,5.0,meteohub,2013-08-18 10:57:00,
2013-08-18 07:02:00,85.1,22.5,-100.00,SE,140,2.0,-999.0,10,-99.99,,,0.00,7.0,meteohub,2013-08-18 11:02:00,
2013-08-18 07:07:00,84.9,22.3,-100.00,SSW,198,6.0,-999.0,10,-99.99,,,0.00,11.0,meteohub,2013-08-18 11:07:00,
2013-08-18 07:12:00,84.9,24.6,-100.00,SE,145,6.0,-999.0,11,-99.99,,,0.00,19.0,meteohub,2013-08-18 11:12:00,
2013-08-18 07:17:00,84.9,30.4,-100.00,South,178,2.0,-999.0,14,-99.99,,,0.00,35.0,meteohub,2013-08-18 11:17:00,
2013-08-18 07:22:00,84.7,35.1,-100.00,South,188,6.0,-999.0,17,-99.99,,,0.00,49.0,meteohub,2013-08-18 11:22:00,
2013-08-18 07:27:00,84.9,33.8,-100.00,SSE,163,7.0,-999.0,16,-99.99,,,0.00,53.0,meteohub,2013-08-18 11:27:00,
2013-08-18 07:32:00,85.5,34.2,-100.00,South,172,1.0,-999.0,16,-99.99,,,0.00,79.0,meteohub,2013-08-18 11:32:00,
2013-08-18 07:37:00,85.5,32.5,-100.00,SSE,165,2.0,-999.0,15,-99.99,,,0.00,105.0,meteohub,2013-08-18 11:37:00,
2013-08-18 07:42:00,85.5,30.9,-100.00,South,189,4.0,-999.0,14,-99.99,,,0.00,120.0,meteohub,2013-08-18 11:42:00,
2013-08-18 07:47:00,85.6,34.3,-100.00,SSE,161,1.0,-999.0,16,-99.99,,,0.00,39.0,meteohub,2013-08-18 11:47:00,
2013-08-18 07:52:00,85.5,35.6,-100.00,South,182,6.0,-999.0,17,-99.99,,,0.00,30.0,meteohub,2013-08-18 11:52:00,
2013-08-18 07:57:00,85.3,35.6,-100.00,South,175,4.0,-999.0,17,-99.99,,,0.00,155.0,meteohub,2013-08-18 11:57:00,
2013-08-18 08:02:00,85.5,32.5,-100.00,South,182,4.0,-999.0,15,-99.99,,,0.00,178.0,meteohub,2013-08-18 12:02:00,
2013-08-18 08:07:00,86.2,33.1,-100.00,SSW,207,7.0,-999.0,15,-99.99,,,0.00,206.0,meteohub,2013-08-18 12:07:00,
2013-08-18 08:12:00,86.4,34.9,-100.00,South,181,5.0,-999.0,16,-99.99,,,0.00,141.0,meteohub,2013-08-18 12:12:00,
2013-08-18 08:17:00,86.4,33.3,-100.00,SSE,157,0.0,-999.0,15,-99.99,,,0.00,278.0,meteohub,2013-08-18 12:17:00,
2013-08-18 08:22:00,86.7,33.6,-100.00,South,180,3.0,-999.0,15,-99.99,,,0.00,278.0,meteohub,2013-08-18 12:22:00,
2013-08-18 08:27:00,86.7,36.7,-100.00,SE,140,4.0,-999.0,17,-99.99,,,0.00,288.0,meteohub,2013-08-18 12:27:00,
2013-08-18 08:32:00,86.5,40.6,-100.00,SW,221,6.0,-999.0,20,-99.99,,,0.00,285.0,meteohub,2013-08-18 12:32:00,
2013-08-18 08:37:00,86.5,41.9,-100.00,SE,125,6.0,-999.0,21,-99.99,,,0.00,311.0,meteohub,2013-08-18 12:37:00,
2013-08-18 08:42:00,87.1,41.2,-100.00,SSE,161,3.0,-999.0,20,-99.99,,,0.00,348.0,meteohub,2013-08-18 12:42:00,
2013-08-18 08:47:00,87.1,41.2,-100.00,SE,143,6.0,-999.0,20,-99.99,,,0.00,153.0,meteohub,2013-08-18 12:47:00,
2013-08-18 08:52:00,87.1,39.7,-100.00,SW,218,4.0,-999.0,19,-99.99,,,0.00,418.0,meteohub,2013-08-18 12:52:00,
2013-08-18 08:57:00,87.3,43.7,-100.00,SSW,202,4.0,-999.0,22,-99.99,,,0.00,399.0,meteohub,2013-08-18 12:57:00,
2013-08-18 09:02:00,87.4,42.8,-100.00,South,181,6.0,-999.0,21,-99.99,,,0.00,128.0,meteohub,2013-08-18 13:02:00,
2013-08-18 09:07:00,87.4,40.1,-100.00,SE,136,3.0,-999.0,19,-99.99,,,0.00,499.0,meteohub,2013-08-18 13:07:00,
2013-08-18 09:12:00,87.6,42.8,-100.00,SSE,152,7.0,-999.0,21,-99.99,,,0.00,462.0,meteohub,2013-08-18 13:12:00,
2013-08-18 09:17:00,87.6,48.6,-100.00,SSW,205,6.0,-999.0,26,-99.99,,,0.00,489.0,meteohub,2013-08-18 13:17:00,
2013-08-18 09:22:00,87.3,50.2,-100.00,SW,218,3.0,-999.0,28,-99.99,,,0.00,209.0,meteohub,2013-08-18 13:22:00,
2013-08-18 09:27:00,87.6,44.1,-100.00,SSE,155,5.0,-999.0,22,-99.99,,,0.00,499.0,meteohub,2013-08-18 13:27:00,
2013-08-18 09:32:00,87.8,46.6,-100.00,South,189,6.0,-999.0,24,-99.99,,,0.00,585.0,meteohub,2013-08-18 13:32:00,
2013-08-18 09:37:00,87.6,53.2,-100.00,SE,144,8.0,-999.0,31,-99.99,,,0.00,547.0,meteohub,2013-08-18 13:37:00,
2013-08-18 09:42:00,88.2,52.0,-100.00,SE,146,6.0,-999.0,29,-99.99,,,0.00,570.0,meteohub,2013-08-18 13:42:00,
2013-08-18 09:47:00,87.8,52.5,-100.00,SSW,209,11.0,-999.0,30,-99.99,,,0.00,522.0,meteohub,2013-08-18 13:47:00,
2013-08-18 09:52:00,88.2,50.0,-100.00,South,171,5.0,-999.0,27,-99.99,,,0.00,693.0,meteohub,2013-08-18 13:52:00,
2013-08-18 09:57:00,88.3,49.1,-100.00,South,173,5.0,-999.0,26,-99.99,,,0.00,650.0,meteohub,2013-08-18 13:57:00,
2013-08-18 10:02:00,88.5,47.1,-100.00,SSE,161,4.0,-999.0,24,-99.99,,,0.00,668.0,meteohub,2013-08-18 14:02:00,
2013-08-18 10:07:00,88.3,45.9,-100.00,SSE,150,8.0,-999.0,23,-99.99,,,0.00,729.0,meteohub,2013-08-18 14:07:00,
2013-08-18 10:12:00,88.7,48.4,-100.00,ENE,78,3.0,-999.0,25,-99.99,,,0.00,731.0,meteohub,2013-08-18 14:12:00,
2013-08-18 10:17:00,88.5,49.3,-100.00,South,175,6.0,-999.0,26,-99.99,,,0.00,701.0,meteohub,2013-08-18 14:17:00,
2013-08-18 10:22:00,87.6,54.1,-100.00,SSE,160,4.0,-999.0,32,-99.99,,,0.00,694.0,meteohub,2013-08-18 14:22:00,
2013-08-18 10:27:00,88.3,53.1,-100.00,SSW,192,7.0,-999.0,30,-99.99,,,0.00,724.0,meteohub,2013-08-18 14:27:00,
2013-08-18 10:32:00,88.5,52.2,-100.00,SSE,164,5.0,-999.0,29,-99.99,,,0.00,100.0,meteohub,2013-08-18 14:32:00,
2013-08-18 10:37:00,88.2,45.7,-100.00,South,180,6.0,-999.0,23,-99.99,,,0.00,162.0,meteohub,2013-08-18 14:37:00,
2013-08-18 10:42:00,88.9,46.2,-100.00,SSW,213,9.0,-999.0,23,-99.99,,,0.00,756.0,meteohub,2013-08-18 14:42:00,
2013-08-18 10:47:00,88.9,53.4,-100.00,SSE,152,11.0,-999.0,30,-99.99,,,0.00,751.0,meteohub,2013-08-18 14:47:00,
2013-08-18 10:52:00,88.0,55.2,-100.00,South,180,8.0,-999.0,33,-99.99,,,0.00,766.0,meteohub,2013-08-18 14:52:00,
2013-08-18 10:57:00,88.5,51.3,-100.00,WSW,248,3.0,-999.0,28,-99.99,,,0.00,803.0,meteohub,2013-08-18 14:57:00,
2013-08-18 11:02:00,88.5,52.2,-100.00,SE,143,4.0,-999.0,29,-99.99,,,0.00,809.0,meteohub,2013-08-18 15:02:00,
2013-08-18 11:07:00,88.9,54.3,-100.00,South,187,4.0,-999.0,31,-99.99,,,0.00,860.0,meteohub,2013-08-18 15:07:00,
2013-08-18 11:12:00,88.9,54.3,-100.00,SSE,155,4.0,-999.0,31,-99.99,,,0.00,817.0,meteohub,2013-08-18 15:12:00,
2013-08-18 11:17:00,89.1,55.4,-100.00,SSE,163,9.0,-999.0,32,-99.99,,,0.00,828.0,meteohub,2013-08-18 15:17:00,
2013-08-18 11:22:00,88.7,57.6,-100.00,SE,146,8.0,-999.0,35,-99.99,,,0.00,840.0,meteohub,2013-08-18 15:22:00,
2013-08-18 11:27:00,88.7,54.1,-100.00,South,186,5.0,-999.0,31,-99.99,,,0.00,879.0,meteohub,2013-08-18 15:27:00,
2013-08-18 11:32:00,88.3,56.5,-100.00,WSW,241,10.0,-999.0,34,-99.99,,,0.00,856.0,meteohub,2013-08-18 15:32:00,
2013-08-18 11:37:00,88.0,58.5,-100.00,South,190,9.0,-999.0,37,-99.99,,,0.00,868.0,meteohub,2013-08-18 15:37:00,
2013-08-18 11:42:00,88.3,55.6,-100.00,SSW,198,3.0,-999.0,33,-99.99,,,0.00,882.0,meteohub,2013-08-18 15:42:00,
2013-08-18 11:47:00,88.5,56.5,-100.00,SSW,209,6.0,-999.0,34,-99.99,,,0.00,889.0,meteohub,2013-08-18 15:47:00,
2013-08-18 11:52:00,88.3,56.5,-100.00,SSE,163,4.0,-999.0,34,-99.99,,,0.00,900.0,meteohub,2013-08-18 15:52:00,
2013-08-18 11:57:00,88.7,55.9,-100.00,SSE,161,2.0,-999.0,33,-99.99,,,0.00,911.0,meteohub,2013-08-18 15:57:00,
2013-08-18 12:02:00,89.1,55.4,-100.00,SSE,152,8.0,-999.0,32,-99.99,,,0.00,930.0,meteohub,2013-08-18 16:02:00,
2013-08-18 12:07:00,88.7,55.0,-100.00,South,180,9.0,-999.0,32,-99.99,,,0.00,981.0,meteohub,2013-08-18 16:07:00,
2013-08-18 12:12:00,89.2,57.2,-100.00,ENE,67,7.0,-999.0,34,-99.99,,,0.00,960.0,meteohub,2013-08-18 16:12:00,
2013-08-18 12:17:00,89.2,58.8,-100.00,SSW,206,9.0,-999.0,36,-99.99,,,0.00,993.0,meteohub,2013-08-18 16:17:00,
2013-08-18 12:22:00,89.2,53.8,-100.00,SW,225,3.0,-999.0,30,-99.99,,,0.00,1121.0,meteohub,2013-08-18 16:22:00,
2013-08-18 12:27:00,88.3,52.0,-100.00,SW,219,12.0,-999.0,29,-99.99,,,0.00,278.0,meteohub,2013-08-18 16:27:00,
2013-08-18 12:32:00,86.7,51.6,-100.00,SE,134,7.0,-999.0,30,-99.99,,,0.00,255.0,meteohub,2013-08-18 16:32:00,
2013-08-18 12:37:00,85.8,43.7,-100.00,South,182,0.0,-999.0,23,-99.99,,,0.00,554.0,meteohub,2013-08-18 16:37:00,
2013-08-18 12:42:00,86.4,40.6,-100.00,South,185,10.0,-999.0,20,-99.99,,,0.00,1179.0,meteohub,2013-08-18 16:42:00,
2013-08-18 12:47:00,87.3,39.9,-100.00,South,175,4.0,-999.0,19,-99.99,,,0.00,445.0,meteohub,2013-08-18 16:47:00,
2013-08-18 12:52:00,88.0,45.5,-100.00,South,175,4.0,-999.0,23,-99.99,,,0.00,849.0,meteohub,2013-08-18 16:52:00,
2013-08-18 12:57:00,88.3,51.1,-100.00,SSE,155,0.0,-999.0,28,-99.99,,,0.00,1137.0,meteohub,2013-08-18 16:57:00,
2013-08-18 13:02:00,89.1,53.6,-100.00,SSE,166,3.0,-999.0,30,-99.99,,,0.00,1116.0,meteohub,2013-08-18 17:02:00,
2013-08-18 13:07:00,89.2,58.8,-100.00,SSW,211,4.0,-999.0,36,-99.99,,,0.00,1227.0,meteohub,2013-08-18 17:07:00,
2013-08-18 13:12:00,89.1,59.4,-100.00,ESE,117,6.0,-999.0,37,-99.99,,,0.00,1007.0,meteohub,2013-08-18 17:12:00,
2013-08-18 13:17:00,87.8,55.9,-100.00,SSW,192,4.0,-999.0,34,-99.99,,,0.00,316.0,meteohub,2013-08-18 17:17:00,
2013-08-18 13:22:00,87.1,46.9,-100.00,South,178,10.0,-999.0,25,-99.99,,,0.00,385.0,meteohub,2013-08-18 17:22:00,
2013-08-18 13:27:00,87.1,56.8,-100.00,SSW,196,8.0,-999.0,36,-99.99,,,0.00,1093.0,meteohub,2013-08-18 17:27:00,
2013-08-18 13:32:00,88.0,59.2,-100.00,SE,126,13.0,-999.0,38,-99.99,,,0.00,1013.0,meteohub,2013-08-18 17:32:00,
2013-08-18 13:37:00,87.6,53.2,-100.00,South,188,6.0,-999.0,31,-99.99,,,0.00,984.0,meteohub,2013-08-18 17:37:00,
2013-08-18 13:42:00,87.1,57.6,-100.00,South,186,6.0,-999.0,37,-99.99,,,0.00,970.0,meteohub,2013-08-18 17:42:00,
2013-08-18 13:47:00,87.6,61.0,-100.00,SE,128,6.0,-999.0,41,-99.99,,,0.00,970.0,meteohub,2013-08-18 17:47:00,
2013-08-18 13:52:00,88.5,63.1,-100.00,SSW,199,6.0,-999.0,43,-99.99,,,0.00,962.0,meteohub,2013-08-18 17:52:00,
2013-08-18 13:57:00,88.2,57.0,-100.00,SSE,159,4.0,-999.0,35,-99.99,,,0.00,965.0,meteohub,2013-08-18 17:57:00,
2013-08-18 14:02:00,89.2,57.9,-100.00,SSW,195,7.0,-999.0,35,-99.99,,,0.00,949.0,meteohub,2013-08-18 18:02:00,
2013-08-18 14:07:00,89.1,55.4,-100.00,SSW,192,7.0,-999.0,32,-99.99,,,0.00,970.0,meteohub,2013-08-18 18:07:00,
2013-08-18 14:12:00,89.1,57.9,-100.00,South,184,4.0,-999.0,35,-99.99,,,0.00,997.0,meteohub,2013-08-18 18:12:00,
2013-08-18 14:17:00,88.3,61.0,-100.00,SSW,207,9.0,-999.0,40,-99.99,,,0.00,970.0,meteohub,2013-08-18 18:17:00,
2013-08-18 14:22:00,87.6,60.3,-100.00,South,184,8.0,-999.0,40,-99.99,,,0.00,1007.0,meteohub,2013-08-18 18:22:00,
2013-08-18 14:27:00,88.5,63.9,-100.00,SSW,200,7.0,-999.0,44,-99.99,,,0.00,995.0,meteohub,2013-08-18 18:27:00,
2013-08-18 14:32:00,89.4,67.8,-100.00,SSW,196,12.0,-999.0,49,-99.99,,,0.00,981.0,meteohub,2013-08-18 18:32:00,
2013-08-18 14:37:00,89.8,68.0,-100.00,South,181,12.0,-999.0,49,-99.99,,,0.00,967.0,meteohub,2013-08-18 18:37:00,
2013-08-18 14:42:00,89.2,61.7,-100.00,South,180,5.0,-999.0,40,-99.99,,,0.00,953.0,meteohub,2013-08-18 18:42:00,
2013-08-18 14:47:00,89.1,60.8,-100.00,SSW,192,6.0,-999.0,39,-99.99,,,0.00,947.0,meteohub,2013-08-18 18:47:00,
2013-08-18 14:52:00,89.2,62.4,-100.00,SSE,163,9.0,-999.0,41,-99.99,,,0.00,937.0,meteohub,2013-08-18 18:52:00,
2013-08-18 14:57:00,88.9,58.5,-100.00,SSW,209,9.0,-999.0,36,-99.99,,,0.00,918.0,meteohub,2013-08-18 18:57:00,
2013-08-18 15:02:00,88.5,55.8,-100.00,SSW,210,11.0,-999.0,33,-99.99,,,0.00,896.0,meteohub,2013-08-18 19:02:00,
2013-08-18 15:07:00,88.9,53.4,-100.00,SSW,195,6.0,-999.0,30,-99.99,,,0.00,882.0,meteohub,2013-08-18 19:07:00,
2013-08-18 15:12:00,89.2,55.6,-100.00,SSW,210,9.0,-999.0,32,-99.99,,,0.00,877.0,meteohub,2013-08-18 19:12:00,
2013-08-18 15:17:00,89.6,55.8,-100.00,SSE,148,5.0,-999.0,32,-99.99,,,0.00,902.0,meteohub,2013-08-18 19:17:00,
2013-08-18 15:22:00,89.1,51.8,-100.00,SSW,205,4.0,-999.0,28,-99.99,,,0.00,888.0,meteohub,2013-08-18 19:22:00,
2013-08-18 15:27:00,89.2,52.9,-100.00,SSW,198,5.0,-999.0,29,-99.99,,,0.00,1032.0,meteohub,2013-08-18 19:27:00,
2013-08-18 15:32:00,90.0,44.8,-100.00,ESE,123,5.0,-999.0,21,-99.99,,,0.00,197.0,meteohub,2013-08-18 19:32:00,
2013-08-18 15:37:00,88.3,43.5,-100.00,SE,134,5.0,-999.0,21,-99.99,,,0.00,334.0,meteohub,2013-08-18 19:37:00,
2013-08-18 15:42:00,88.3,44.6,-100.00,SSE,149,4.0,-999.0,22,-99.99,,,0.00,221.0,meteohub,2013-08-18 19:42:00,
2013-08-18 15:47:00,88.5,47.1,-100.00,SSE,162,9.0,-999.0,24,-99.99,,,0.00,221.0,meteohub,2013-08-18 19:47:00,
2013-08-18 15:52:00,88.5,51.3,-100.00,SE,135,10.0,-999.0,28,-99.99,,,0.00,765.0,meteohub,2013-08-18 19:52:00,
2013-08-18 15:57:00,88.7,53.2,-100.00,South,183,6.0,-999.0,30,-99.99,,,0.00,747.0,meteohub,2013-08-18 19:57:00,
2013-08-18 16:02:00,88.9,53.4,-100.00,SSE,163,9.0,-999.0,30,-99.99,,,0.00,740.0,meteohub,2013-08-18 20:02:00,
2013-08-18 16:07:00,89.1,56.3,-100.00,ESE,121,11.0,-999.0,33,-99.99,,,0.00,782.0,meteohub,2013-08-18 20:07:00,
2013-08-18 16:12:00,88.9,53.4,-100.00,SSW,197,9.0,-999.0,30,-99.99,,,0.00,816.0,meteohub,2013-08-18 20:12:00,
2013-08-18 16:17:00,88.7,49.5,-100.00,South,180,5.0,-999.0,26,-99.99,,,0.00,805.0,meteohub,2013-08-18 20:17:00,
2013-08-18 16:22:00,88.7,53.2,-100.00,SSW,206,9.0,-999.0,30,-99.99,,,0.00,842.0,meteohub,2013-08-18 20:22:00,
2013-08-18 16:27:00,88.5,49.3,-100.00,SE,145,6.0,-999.0,26,-99.99,,,0.00,225.0,meteohub,2013-08-18 20:27:00,
2013-08-18 16:32:00,88.9,48.6,-100.00,South,190,9.0,-999.0,25,-99.99,,,0.00,696.0,meteohub,2013-08-18 20:32:00,
2013-08-18 16:37:00,88.7,47.3,-100.00,SSE,150,4.0,-999.0,24,-99.99,,,0.00,313.0,meteohub,2013-08-18 20:37:00,
2013-08-18 16:42:00,88.2,44.6,-100.00,SSW,193,4.0,-999.0,22,-99.99,,,0.00,213.0,meteohub,2013-08-18 20:42:00,
2013-08-18 16:47:00,88.0,41.9,-100.00,South,182,0.0,-999.0,20,-99.99,,,0.00,229.0,meteohub,2013-08-18 20:47:00,
2013-08-18 16:52:00,88.3,44.6,-100.00,SSW,196,7.0,-999.0,22,-99.99,,,0.00,749.0,meteohub,2013-08-18 20:52:00,
2013-08-18 16:57:00,88.2,44.6,-100.00,SSW,202,5.0,-999.0,22,-99.99,,,0.00,197.0,meteohub,2013-08-18 20:57:00,
2013-08-18 17:02:00,87.8,44.2,-100.00,South,175,4.0,-999.0,22,-99.99,,,0.00,83.0,meteohub,2013-08-18 21:02:00,
2013-08-18 17:07:00,87.4,41.4,-100.00,SSE,168,2.0,-999.0,20,-99.99,,,0.00,104.0,meteohub,2013-08-18 21:07:00,
2013-08-18 17:12:00,87.6,37.4,-100.00,SSW,196,5.0,-999.0,17,-99.99,,,0.00,253.0,meteohub,2013-08-18 21:12:00,
2013-08-18 17:17:00,87.6,42.8,-100.00,ESE,117,10.0,-999.0,21,-99.99,,,0.00,199.0,meteohub,2013-08-18 21:17:00,
2013-08-18 17:22:00,87.6,45.3,-100.00,South,188,9.0,-999.0,23,-99.99,,,0.00,575.0,meteohub,2013-08-18 21:22:00,
2013-08-18 17:27:00,88.2,47.8,-100.00,South,187,9.0,-999.0,25,-99.99,,,0.00,534.0,meteohub,2013-08-18 21:27:00,
2013-08-18 17:32:00,88.5,49.3,-100.00,South,181,5.0,-999.0,26,-99.99,,,0.00,378.0,meteohub,2013-08-18 21:32:00,
2013-08-18 17:37:00,88.3,50.2,-100.00,SSW,193,6.0,-999.0,27,-99.99,,,0.00,348.0,meteohub,2013-08-18 21:37:00,
2013-08-18 17:42:00,88.2,48.9,-100.00,SSW,195,6.0,-999.0,26,-99.99,,,0.00,311.0,meteohub,2013-08-18 21:42:00,
2013-08-18 17:47:00,87.6,47.5,-100.00,SE,132,10.0,-999.0,25,-99.99,,,0.00,223.0,meteohub,2013-08-18 21:47:00,
2013-08-18 17:52:00,87.8,47.7,-100.00,SSW,207,6.0,-999.0,25,-99.99,,,0.00,195.0,meteohub,2013-08-18 21:52:00,
2013-08-18 17:57:00,87.8,46.6,-100.00,SSE,148,5.0,-999.0,24,-99.99,,,0.00,225.0,meteohub,2013-08-18 21:57:00,
2013-08-18 18:02:00,87.6,46.4,-100.00,SE,142,9.0,-999.0,24,-99.99,,,0.00,281.0,meteohub,2013-08-18 22:02:00,
2013-08-18 18:07:00,87.6,47.5,-100.00,South,186,7.0,-999.0,25,-99.99,,,0.00,278.0,meteohub,2013-08-18 22:07:00,
2013-08-18 18:12:00,88.0,45.5,-100.00,SSW,211,9.0,-999.0,23,-99.99,,,0.00,285.0,meteohub,2013-08-18 22:12:00,
2013-08-18 18:17:00,87.6,45.3,-100.00,South,172,5.0,-999.0,23,-99.99,,,0.00,250.0,meteohub,2013-08-18 22:17:00,
2013-08-18 18:22:00,88.0,41.9,-100.00,South,180,3.0,-999.0,20,-99.99,,,0.00,151.0,meteohub,2013-08-18 22:22:00,
2013-08-18 18:27:00,87.6,44.1,-100.00,SSE,167,6.0,-999.0,22,-99.99,,,0.00,185.0,meteohub,2013-08-18 22:27:00,
2013-08-18 18:32:00,87.4,42.8,-100.00,SSE,152,3.0,-999.0,21,-99.99,,,0.00,192.0,meteohub,2013-08-18 22:32:00,
2013-08-18 18:37:00,87.6,42.8,-100.00,ESE,121,4.0,-999.0,21,-99.99,,,0.00,207.0,meteohub,2013-08-18 22:37:00,
2013-08-18 18:42:00,87.6,45.3,-100.00,SSE,161,3.0,-999.0,23,-99.99,,,0.00,165.0,meteohub,2013-08-18 22:42:00,
2013-08-18 18:47:00,87.6,42.8,-100.00,SSE,167,3.0,-999.0,21,-99.99,,,0.00,137.0,meteohub,2013-08-18 22:47:00,
2013-08-18 18:52:00,87.3,42.6,-100.00,SSW,202,7.0,-999.0,21,-99.99,,,0.00,97.0,meteohub,2013-08-18 22:52:00,
2013-08-18 18:57:00,87.3,41.4,-100.00,SE,131,5.0,-999.0,20,-99.99,,,0.00,84.0,meteohub,2013-08-18 22:57:00,
2013-08-18 19:02:00,87.1,39.7,-100.00,South,175,0.0,-999.0,19,-99.99,,,0.00,62.0,meteohub,2013-08-18 23:02:00,
2013-08-18 19:07:00,86.9,39.7,-100.00,SW,229,5.0,-999.0,19,-99.99,,,0.00,51.0,meteohub,2013-08-18 23:07:00,
2013-08-18 19:12:00,86.9,39.7,-100.00,SSE,166,7.0,-999.0,19,-99.99,,,0.00,54.0,meteohub,2013-08-18 23:12:00,
2013-08-18 19:17:00,87.1,39.7,-100.00,South,178,4.0,-999.0,19,-99.99,,,0.00,42.0,meteohub,2013-08-18 23:17:00,
2013-08-18 19:22:00,87.1,38.5,-100.00,South,188,6.0,-999.0,18,-99.99,,,0.00,37.0,meteohub,2013-08-18 23:22:00,
2013-08-18 19:27:00,86.7,38.1,-100.00,SSE,148,1.0,-999.0,18,-99.99,,,0.00,23.0,meteohub,2013-08-18 23:27:00,
2013-08-18 19:32:00,87.1,35.4,-100.00,SE,126,5.0,-999.0,16,-99.99,,,0.00,21.0,meteohub,2013-08-18 23:32:00,
2013-08-18 19:37:00,86.9,36.9,-100.00,SSE,148,0.0,-999.0,17,-99.99,,,0.00,16.0,meteohub,2013-08-18 23:37:00,
2013-08-18 19:42:00,86.7,35.2,-100.00,South,180,1.0,-999.0,16,-99.99,,,0.00,7.0,meteohub,2013-08-18 23:42:00,
2013-08-18 19:47:00,86.5,35.1,-100.00,SSE,150,2.0,-999.0,16,-99.99,,,0.00,5.0,meteohub,2013-08-18 23:47:00,
2013-08-18 19:52:00,86.7,35.2,-100.00,South,180,2.0,-999.0,16,-99.99,,,0.00,0.0,meteohub,2013-08-18 23:52:00,
2013-08-18 19:57:00,86.5,33.4,-100.00,SE,133,3.0,-999.0,15,-99.99,,,0.00,0.0,meteohub,2013-08-18 23:57:00,
2013-08-18 20:02:00,86.4,33.3,-100.00,SE,142,7.0,-999.0,15,-99.99,,,0.00,0.0,meteohub,2013-08-19 00:02:00,
2013-08-18 20:07:00,86.7,33.6,-100.00,SSE,157,2.0,-999.0,15,-99.99,,,0.00,0.0,meteohub,2013-08-19 00:07:00,
2013-08-18 20:17:00,86.2,34.7,-100.00,SSE,167,3.0,-999.0,16,-99.99,,,0.00,0.0,meteohub,2013-08-19 00:17:00,
2013-08-18 20:22:00,86.4,33.3,-100.00,SSE,149,4.0,-999.0,15,-99.99,,,0.00,0.0,meteohub,2013-08-19 00:22:00,
2013-08-18 20:27:00,86.4,34.9,-100.00,South,182,2.0,-999.0,16,-99.99,,,0.00,0.0,meteohub,2013-08-19 00:27:00,
2013-08-18 20:32:00,86.2,34.7,-100.00,SE,139,5.0,-999.0,16,-99.99,,,0.00,0.0,meteohub,2013-08-19 00:32:00,
2013-08-18 20:37:00,86.4,34.9,-100.00,South,171,0.0,-999.0,16,-99.99,,,0.00,0.0,meteohub,2013-08-19 00:37:00,
2013-08-18 20:42:00,86.2,34.7,-100.00,SE,144,0.0,-999.0,16,-99.99,,,0.00,0.0,meteohub,2013-08-19 00:42:00,
2013-08-18 20:47:00,85.8,36.0,-100.00,SSE,162,0.0,-999.0,17,-99.99,,,0.00,0.0,meteohub,2013-08-19 00:47:00,
2013-08-18 20:52:00,85.8,37.4,-100.00,SSE,155,4.0,-999.0,18,-99.99,,,0.00,0.0,meteohub,2013-08-19 00:52:00,
2013-08-18 20:57:00,86.2,37.8,-100.00,SSE,148,1.0,-999.0,18,-99.99,,,0.00,0.0,meteohub,2013-08-19 00:57:00,
2013-08-18 21:02:00,86.2,36.3,-100.00,ESE,123,4.0,-999.0,17,-99.99,,,0.00,0.0,meteohub,2013-08-19 01:02:00,
2013-08-18 21:07:00,86.2,34.7,-100.00,SSE,165,5.0,-999.0,16,-99.99,,,0.00,0.0,meteohub,2013-08-19 01:07:00,
2013-08-18 21:12:00,86.2,34.7,-100.00,South,175,0.0,-999.0,16,-99.99,,,0.00,0.0,meteohub,2013-08-19 01:12:00,
2013-08-18 21:17:00,86.2,34.7,-100.00,SE,136,0.0,-999.0,16,-99.99,,,0.00,0.0,meteohub,2013-08-19 01:17:00,
2013-08-18 21:22:00,86.2,36.3,-100.00,SSE,163,4.0,-999.0,17,-99.99,,,0.00,0.0,meteohub,2013-08-19 01:22:00,
2013-08-18 21:27:00,86.0,34.5,-100.00,SSE,163,0.0,-999.0,16,-99.99,,,0.00,0.0,meteohub,2013-08-19 01:27:00,
2013-08-18 21:32:00,86.2,31.5,-100.00,South,179,3.0,-999.0,14,-99.99,,,0.00,0.0,meteohub,2013-08-19 01:32:00,
2013-08-18 21:37:00,86.2,31.5,-100.00,SE,136,1.0,-999.0,14,-99.99,,,0.00,0.0,meteohub,2013-08-19 01:37:00,
2013-08-18 21:42:00,86.2,31.5,-100.00,South,184,0.0,-999.0,14,-99.99,,,0.00,0.0,meteohub,2013-08-19 01:42:00,
2013-08-18 21:47:00,86.2,31.5,-100.00,SSE,155,0.0,-999.0,14,-99.99,,,0.00,0.0,meteohub,2013-08-19 01:47:00,
2013-08-18 21:52:00,86.2,29.7,-100.00,South,171,1.0,-999.0,13,-99.99,,,0.00,0.0,meteohub,2013-08-19 01:52:00,
2013-08-18 21:57:00,86.2,27.7,-100.00,South,188,4.0,-999.0,12,-99.99,,,0.00,0.0,meteohub,2013-08-19 01:57:00,
2013-08-18 22:02:00,86.4,29.7,-100.00,SSE,161,6.0,-999.0,13,-99.99,,,0.00,0.0,meteohub,2013-08-19 02:02:00,
2013-08-18 22:07:00,86.2,27.7,-100.00,SSE,163,6.0,-999.0,12,-99.99,,,0.00,0.0,meteohub,2013-08-19 02:07:00,
2013-08-18 22:12:00,86.4,25.7,-100.00,SSE,150,0.0,-999.0,11,-99.99,,,0.00,0.0,meteohub,2013-08-19 02:12:00,
2013-08-18 22:17:00,86.4,27.7,-100.00,SSE,161,3.0,-999.0,12,-99.99,,,0.00,0.0,meteohub,2013-08-19 02:17:00,
2013-08-18 22:22:00,86.2,25.5,-100.00,SSE,149,4.0,-999.0,11,-99.99,,,0.00,0.0,meteohub,2013-08-19 02:22:00,
2013-08-18 22:27:00,86.2,25.5,-100.00,SSE,156,0.0,-999.0,11,-99.99,,,0.00,0.0,meteohub,2013-08-19 02:27:00,
2013-08-18 22:32:00,86.4,23.4,-100.00,SSE,148,0.0,-999.0,10,-99.99,,,0.00,0.0,meteohub,2013-08-19 02:32:00,
2013-08-18 22:37:00,86.5,25.9,-100.00,SE,140,0.0,-999.0,11,-99.99,,,0.00,0.0,meteohub,2013-08-19 02:37:00,
2013-08-18 22:42:00,86.2,23.2,-100.00,South,173,7.0,-999.0,10,-99.99,,,0.00,0.0,meteohub,2013-08-19 02:42:00,
2013-08-18 22:47:00,86.0,23.2,-100.00,South,173,2.0,-999.0,10,-99.99,,,0.00,0.0,meteohub,2013-08-19 02:47:00,
2013-08-18 22:52:00,86.2,23.2,-100.00,SSE,164,2.0,-999.0,10,-99.99,,,0.00,0.0,meteohub,2013-08-19 02:52:00,
2013-08-18 22:57:00,86.4,23.4,-100.00,SE,137,1.0,-999.0,10,-99.99,,,0.00,0.0,meteohub,2013-08-19 02:57:00,
2013-08-18 23:02:00,86.2,23.2,-100.00,SSE,163,1.0,-999.0,10,-99.99,,,0.00,0.0,meteohub,2013-08-19 03:02:00,
2013-08-18 23:07:00,85.8,23.0,-100.00,SSE,156,0.0,-999.0,10,-99.99,,,0.00,0.0,meteohub,2013-08-19 03:07:00,
2013-08-18 23:12:00,86.2,23.2,-100.00,South,170,1.0,-999.0,10,-99.99,,,0.00,0.0,meteohub,2013-08-19 03:12:00,
2013-08-18 23:17:00,86.2,25.5,-100.00,SSE,157,2.0,-999.0,11,-99.99,,,0.00,0.0,meteohub,2013-08-19 03:17:00,
2013-08-18 23:22:00,86.0,25.3,-100.00,SSE,163,2.0,-999.0,11,-99.99,,,0.00,0.0,meteohub,2013-08-19 03:22:00,
2013-08-18 23:27:00,85.8,25.2,-100.00,SSE,161,2.0,-999.0,11,-99.99,,,0.00,0.0,meteohub,2013-08-19 03:27:00,
2013-08-18 23:32:00,86.0,23.2,-100.00,SSE,148,0.0,-999.0,10,-99.99,,,0.00,0.0,meteohub,2013-08-19 03:32:00,
2013-08-18 23:37:00,85.8,23.0,-100.00,SSE,156,1.0,-999.0,10,-99.99,,,0.00,0.0,meteohub,2013-08-19 03:37:00,
2013-08-18 23:42:00,85.8,23.0,-100.00,South,169,4.0,-999.0,10,-99.99,,,0.00,0.0,meteohub,2013-08-19 03:42:00,
2013-08-18 23:47:00,86.0,23.2,-100.00,SSE,157,1.0,-999.0,10,-99.99,,,0.00,0.0,meteohub,2013-08-19 03:47:00,
2013-08-18 23:52:00,86.0,23.2,-100.00,SSE,153,1.0,-999.0,10,-99.99,,,0.00,0.0,meteohub,2013-08-19 03:52:00,
2013-08-18 23:57:00,85.8,23.0,-100.00,SSE,167,1.0,-999.0,10,-99.99,,,0.00,0.0,meteohub,2013-08-19 03:57:00,